Miscellaneous Local Product
Issued by NWS Hastings, NE

Home | Current Version | Previous Version | Text Only | Print | Product List | Glossary Off
Versions: 1 2 3 4 5 6 7 8 9 10 11 12 13 14 15 16 17 18 19 20 21 22 23 24 25 26 27 28 29 30 31 32 33 34 35 36 37 38 39 40 41 42 43 44 45 46 47 48 49 50

000
AXUS43 KGID 270502
MISGRI

GID CWA HOURLY WEATHER ROUNDUP
NATIONAL WEATHER SERVICE HASTINGS NE
1100 PM CST WED NOV 26 2014

NOTE: "FAIR" INDICATES FEW OR NO CLOUDS BELOW 12,000 FEET WITH NO
SIGNIFICANT WEATHER AND/OR OBSTRUCTIONS TO VISIBILITY.

...SOUTH CENTRAL NEBRASKA...

CITY           SKY/WX    TMP DP  RH WIND       PRES   REMARKS
GRAND ISLAND   PTCLDY    19  14  81 W3        30.45R
HASTINGS       CLEAR     19  13  77 N7        30.42S WCI  10
KEARNEY        PTCLDY    18  12  79 N8        30.42F WCI   7
ORD            MOCLDY    15  12  88 CALM      30.40F
YORK           PTCLDY    21  14  73 NW6       30.45R WCI  14
AURORA         PTCLDY    21  14  75 NW5       30.44S WCI  14
LEXINGTON      PTCLDY    21  16  81 NE8       30.39R WCI  11
HOLDREGE       FAIR      20  14  77 E6        30.40R WCI  12
HEBRON         CLEAR     22  15  76 N6        30.45F WCI  14

...NEBRASKA PANHANDLE...

CITY           SKY/WX    TMP DP  RH WIND       PRES   REMARKS
CHADRON        CLOUDY   N/A N/A N/A S5        30.26S
ALLIANCE       PTCLDY    20  18  92 S5        30.26S FOG     WCI  13
SCOTTSBLUFF    PTCLDY    21  19  92 E8        30.26S WCI  11
SIDNEY         PTCLDY    17  14  88 SW10      30.27F WCI   5

...WESTERN AND NORTH CENTRAL NEBRASKA...

CITY           SKY/WX    TMP DP  RH WIND       PRES   REMARKS
VALENTINE      CLOUDY    23  18  81 SE6       30.34F WCI  16
AINSWORTH      CLOUDY    21  17  85 SE7       30.36R WCI  13
ONEILL         MOCLDY    16  11  81 CALM      30.43R
BROKEN BOW     PTCLDY    17  12  80 CALM      30.37F
IMPERIAL       CLOUDY    31  28  89 S7        30.32F WCI  24
NORTH PLATTE   MOCLDY    22  17  81 SE3       30.36R
MCCOOK         CLOUDY    31  20  63 SE5       30.36F WCI  26

...EASTERN NEBRASKA...

CITY           SKY/WX    TMP DP  RH WIND       PRES   REMARKS
NORFOLK        PTCLDY    14   9  80 NW6       30.45R WCI   5
SO SIOUX CITY  CLOUDY    17  11  77 N12       30.46R WCI   4
TEKAMAH        CLOUDY    19  13  77 NW14      30.46R WCI   6
COLUMBUS       PTCLDY    16   7  67 W6        30.46S WCI   7
ALBION         PTCLDY    19   9  66 CALM      30.44R
OMAHA EPPLEY   CLOUDY    23  17  78 N16       30.45R WCI  10
OFFUTT AFB     CLOUDY    23  17  78 N10       30.43R WCI  13
MILLARD        CLOUDY    24  18  77 N10G20    30.43S WCI  13
LINCOLN        PTCLDY    19  14  81 N7        30.46R WCI  10
NEBRASKA CITY  CLOUDY    23  17  75 N9        30.42R WCI  13
BEATRICE       CLEAR     19  16  86 NW6       30.45R WCI  11
FALLS CITY     CLOUDY    25  19  78 N13       30.43R WCI  14

...NORTHERN KANSAS...

CITY           SKY/WX    TMP DP  RH WIND       PRES   REMARKS
GOODLAND       CLOUDY    27  24  89 S9        30.34F WCI  18
HILL CITY      CLOUDY    33  19  56 S3        30.41R
NORTON         MOCLDY    28  16  59 CALM      30.38F
PHILLIPSBURG   CLOUDY    28  19  69 CALM      30.42F
SMITH CENTER   MOCLDY    23  16  74 NE6       30.43F WCI  16
BELOIT         CLOUDY    21  18  86 CALM      30.45S
HAYS           CLOUDY    34  16  47 E7        30.41S WCI  28
RUSSELL        CLOUDY    30  20  66 NE7       30.42R WCI  23
CONCORDIA      CLEAR     23  17  78 NW3       30.45R
SALINA         CLOUDY    27  19  72 N7        30.47R WCI  19
TOPEKA         CLOUDY    29  20  69 N10       30.45R WCI  20



USA.gov is the U.S. government's official web portal to all federal, state and local government web resources and services.